Location: Newark
(44.2764°N, 5.2753°E)
Time: 23:50:32
(UTC+00:00)

ISS - Pass Details

Date: 22 January 2020
Orbit: 416 x 422 km, 51.6° (Epoch: 20 February)

Event Time Altitude Azimuth Distance (km) Brightness Sun altitude
Rises 17:17:29 0° 209° (SSW) 2,364 0.9 -8.0°
Reaches altitude 10° 17:19:47 10° 196° (SSW) 1,502 -0.4 -8.4°
Maximum altitude 17:22:39 26° 137° (SE) 869 -2.4 -8.8°
Enters shadow 17:25:05 13° 84° (E) 1,356 -1.8 -9.2°
